Location: The Saddle
(36.8333°N, 80.3417°W)
Time: 06:47:29
(UTC-04:00)

Courier 1B - Pass Details

Date: 21 September 2024
Orbit: 962 x 1208 km, 28.3° (Epoch: 05 October)

Event Time Altitude Azimuth Distance (km) Brightness Sun altitude
Rises 14:43:17 0° 255° (WSW) 3,737 11.0 48.0°
Reaches altitude 10° 14:46:02 10° 248° (WSW) 2,819 10.7 47.7°
Maximum altitude 14:52:28 43° 179° (S) 1,473 9.8 47.0°
Drops below altitude 10° 14:59:18 10° 111° (ESE) 2,992 10.0 46.1°
Sets 15:02:18 0° 105° (ESE) 3,989 10.5 45.7°
